DELTA 1 DEB, 10759

Orbit data source: Space-Track

DELTA 1 DEB, 10759 is space debris in SSO originally from a launch on Thu, 29 Jul 1976 UTC launched from the Air Force Western Test Range (AFWTR). Debris objects in space refer to the collection of defunct objects orbiting the Earth. Examples of debris include non-operational satellites, rocket bodies, and fragments generated from explosions, collisions, or faulty payload assembly.

Loading next visibility...
Identifier
10759, 1976-077BG
Orbit
SSO
Country
Flag of USUS
Related business
Manufacturer
Unknown
Mission
Spacecraft
Bus & Motor
Unknown
Mass
Unknown
Launch date (UTC)
1976-07-29 (49 years ago)
Launch vehicle
Unknown
Launch site
Air Force Western Test Range (AFWTR)
Object type
Payload
Rocket body
Debris
Shape & HBR
Unknown shape, 0.2 m
Radar Cross Section
Small (<0.1 m²)

Expand to show TLE details & history
Last TLE update: 12 hours ago

TLE from 12 hours ago
0 DELTA 1 DEB
1 10759U 76077BG  25301.66308738  .00000374  00000-0  30462-2 0  9992
2 10759 102.4810 191.5785 0071948  74.0738 312.8850 12.42088103222859
Epoch: 2025-10-28T15:54Z
TLE epoch observation values (Epoch: 2025-10-28T15:54:50.749Z)
Latitude
25.71458°
Longitude
-90.46925°
Altitude
1,462.199 km
Speed
7.151 km/s
True Right ascension
12h 21m 57s
True Declination
25° 35' 33"
Sunlit
Object was in daylight at epoch
Visualization orbit readout
Latitude
Unknown
Longitude
Unknown
Altitude
Unknown
Speed
Unknown
Apparent Right ascension
Unknown
Apparent Declination
Unknown
Sunlit
N/A
Visualization observer readout
Local Sidereal Time
23:51:35
Azimuth
Unknown
Elevation
Unknown
Doppler factor
Unknown
Orbital elements
Apogee altitude
1,552.013 km
Perigee altitude
1,438.717 km
Semi-major axis
7,873.502 km
Eccentricity
0.00719
Inclination
102.481°
RAAN
191.5785°
Arg. of periapsis
74.0738°
True anomaly
312.27719°
Mean anomaly
312.885°
Eccentric anomaly
312.58147°
Mean motion
3.10664 °/min
Orbital period
115.88 mins
BSTAR
0.0030462
Loading maneuver chart data...
Computing Atmospheric mass density...
Loading historical data...
Loading historical data...
Loading historical data...
Loading historical data...
Loading historical data...
Loading historical data...
Loading historical data...

Documentation

Showing up to 5 results
|